Tracking 19476 objects as of 17-Jan-2019
HD Live streaming from Space Station
objects crossing your sky now

WGS 8 (USA 272)

Track WGS 8 (USA 272) now!


NORAD ID: 41879
Int'l Code: 2016-075A
Perigee: 35,792.8 km
Apogee: 35,794.8 km
Inclination: 0.0 °
Period: 1,436.1 minutes
Semi major axis: 42164 km
RCS: Unknown
Launch date: December 7, 2016
Source: United States (US)
Launch site: AIR FORCE EASTERN TEST RANGE (AFETR)
aabbcc
Your satellite tracking list
Your tracking list is empty




NASA's NSSDC Master Catalog

Two Line Element Set (TLE):
1 41879U 16075A   19016.26326486 -.00000191  00000-0  00000+0 0  9993
2 41879   0.0162  53.5700 0000241 306.1370   0.2866  1.00271504  7769
Source of the keplerian elements: McCants